Wind_Speed
18 18 18 17 17 16 16 16 16 15 15 15 15 15 14 14 14 13 13 13 13 13 14 14 14 14 14 14 14 15 16 16 16 17 17 18 18 19
20 20 20 20 19 18 18 18 17 17 17 17 17 17 16 15 15 15 16 15 16 15 15 15 15 15 16 16 17 17 18 18 19 19 20 21 21 22
21 21 21 21 21 20 20 20 20 18 18 19 18 18 18 18 17 18 18 18 18 18 18 17 17 18 19 19 19 20 20 20 21 22 23 24 24 25
21 22 22 23 22 21 21 20 20 20 20 20 21 20 20 21 20 20 20 20 20 20 20 20 20 21 21 21 22 22 22 23 24 25 26 26 27 28
21 21 21 22 22 22 22 21 21 21 22 23 23 23 22 23 22 22 22 22 22 22 22 23 24 24 24 24 24 25 26 26 27 28 29 30 30 31
19 20 20 20 21 22 22 22 23 23 23 24 24 25 24 24 24 24 24 24 24 24 25 25 26 26 26 26 27 29 29 30 30 31 32 33 33 33
21 20 20 21 22 22 23 23 24 24 24 24 24 25 26 26 25 26 26 26 26 27 28 28 28 28 28 29 30 32 33 33 34 35 35 36 36 36
22 22 22 23 23 23 24 24 25 25 25 26 26 26 26 28 28 28 29 29 29 30 30 30 30 30 31 32 33 34 35 36 37 38 38 39 40 39
22 23 23 23 24 24 24 25 25 26 26 26 26 26 28 30 30 31 31 31 31 32 33 33 34 34 34 35 36 37 38 38 39 40 41 42 42 42
22 23 24 24 24 25 26 26 26 26 27 28 29 29 30 31 31 32 33 33 34 35 36 35 35 36 37 37 38 39 40 41 42 43 43 43 43 43
23 23 24 25 25 26 26 27 27 28 29 30 30 32 33 34 33 33 34 36 36 37 38 38 38 39 40 40 41 42 42 43 44 45 44 44 45 46
23 23 24 25 26 27 29 29 30 31 31 32 33 34 34 35 35 35 36 37 38 39 40 41 41 42 43 44 45 45 45 46 46 46 46 47 47 48
25 25 25 26 27 28 29 30 31 32 33 33 34 34 35 36 36 37 38 39 39 39 41 42 42 43 45 46 46 47 47 47 48 48 47 48 49 49
27 27 26 27 28 29 30 31 32 33 34 35 35 35 36 36 37 38 39 40 40 41 42 43 44 44 45 47 47 47 48 48 48 48 48 49 49 50
28 28 28 29 30 31 32 33 34 34 35 35 34 35 36 37 38 39 39 41 42 42 43 44 45 45 47 47 47 46 46 46 47 48 49 50 50 51
28 30 30 30 31 31 32 33 34 34 35 35 36 37 38 39 40 41 41 42 43 43 44 44 45 45 45 45 45 45 46 47 48 49 49 50 50 50
30 31 31 31 32 32 33 33 34 35 36 37 39 40 40 40 41 41 42 42 43 44 44 44 44 43 43 44 45 45 46 47 48 49 50 50 50 51
31 30 31 31 31 32 33 34 36 37 38 39 40 40 40 41 41 42 42 43 44 44 44 44 43 43 44 45 46 46 46 47 48 48 50 50 50 50
31 32 32 33 33 34 35 36 37 38 39 39 40 40 40 40 41 41 42 42 43 43 44 44 45 46 46 46 46 47 47 47 47 48 48 48 47 47
32 33 34 35 36 36 37 37 38 38 39 39 39 40 40 41 41 42 42 43 43 43 44 44 44 45 45 45 45 46 47 46 46 46 46 46 46 46
33 34 35 36 37 38 39 39 39 39 39 40 40 41 41 42 43 43 43 44 44 44 43 43 43 44 44 45 46 46 46 45 45 45 45 45 45 44
33 35 36 37 38 38 39 39 39 39 39 41 41 42 43 43 43 43 43 42 42 42 43 43 44 44 44 44 44 44 44 43 43 44 44 44 43 41
35 35 36 38 39 39 39 39 39 40 40 41 42 42 42 42 42 42 42 42 43 43 43 43 43 43 42 42 42 42 42 42 42 42 42 42 40 39
Wind_Direction
253 253 253 253 254 256 258 262 260 259 262 265 267 270 272 274 272 273 276 281 285 285 284 283 283 284 286 287 289 291 291 292 295 297 299 300 300 299
252 253 255 256 257 257 259 260 260 261 262 265 268 270 271 273 271 273 276 279 282 284 283 282 282 283 285 286 287 289 290 291 293 295 296 297 298 297
252 253 255 257 257 256 258 260 260 260 263 265 266 268 271 272 272 273 275 278 280 280 279 279 281 282 284 284 285 286 288 289 291 293 294 296 296 296
253 253 255 257 257 257 259 259 260 262 264 265 267 268 268 269 270 272 275 276 276 277 276 277 279 281 283 284 285 286 287 289 291 293 295 296 296 296
255 254 256 258 259 259 260 260 262 264 266 267 268 268 267 268 269 271 272 274 276 276 278 278 278 279 281 284 285 286 288 289 291 293 294 295 295 294
259 258 259 261 261 263 263 263 263 266 268 269 270 269 268 268 269 270 271 274 277 278 279 279 279 280 281 283 285 287 288 289 291 292 293 294 293 292
262 263 264 264 264 265 265 264 264 265 268 269 270 270 271 270 270 271 272 275 277 277 279 279 279 279 279 281 282 284 286 288 289 290 292 293 293 292
264 264 266 266 263 265 266 265 266 268 269 270 270 272 273 273 272 272 273 275 276 277 279 280 279 279 280 281 283 284 286 287 289 289 289 290 291 291
265 267 268 267 263 263 265 266 267 269 270 271 273 275 274 274 275 274 275 276 277 277 278 280 280 280 280 282 283 284 285 287 288 288 289 289 288 289
267 269 268 268 266 266 267 269 270 271 273 274 275 276 277 278 277 276 276 278 279 280 282 281 280 281 282 283 284 285 286 288 289 288 288 289 288 288
268 269 269 270 268 267 268 270 272 273 274 276 277 278 279 279 279 280 279 279 280 281 282 282 281 282 283 283 284 285 286 287 288 288 288 287 288 288
268 269 271 271 270 268 269 271 273 274 274 276 278 279 280 281 280 282 282 280 281 281 282 282 283 284 285 285 285 285 286 286 287 288 288 288 287 288
271 273 274 272 270 270 271 274 276 277 277 278 280 281 281 280 281 282 283 283 283 284 284 283 284 285 286 286 287 287 287 287 288 288 287 287 288 289
274 273 274 274 273 272 274 276 278 279 279 280 281 283 281 280 281 282 284 284 284 284 284 285 285 286 287 288 288 288 288 288 288 288 287 288 288 289
276 276 275 275 275 276 277 277 278 279 280 281 281 283 285 284 283 284 285 285 285 285 284 285 286 287 288 288 288 289 288 288 287 287 287 288 289 289
278 277 277 277 277 278 279 279 279 279 280 280 281 282 283 283 283 284 284 284 285 285 285 285 286 287 287 288 288 288 288 288 288 288 288 289 289 289
278 279 279 279 279 280 281 281 282 281 281 282 283 284 284 285 285 286 286 286 285 285 285 285 286 287 287 288 288 289 290 290 290 290 290 291 291 290
279 280 282 282 282 283 283 284 285 285 285 285 285 286 286 286 286 286 285 285 286 286 286 286 286 286 288 289 290 291 291 292 291 291 292 292 292 291
282 281 282 283 284 285 286 287 287 287 287 287 287 287 288 287 287 287 286 287 287 287 287 287 287 289 289 290 290 290 291 291 292 292 293 294 293 292
284 283 282 283 285 286 287 288 288 289 288 287 288 289 289 288 288 288 288 288 289 288 288 288 289 290 290 291 291 291 292 293 294 294 293 294 294 293
286 285 285 285 286 286 287 288 288 288 288 287 288 288 289 289 288 288 289 289 288 288 289 289 290 290 290 291 291 292 293 294 295 295 295 295 295 295
289 289 287 286 287 287 287 287 288 287 287 287 288 289 289 289 289 289 289 288 288 289 290 290 291 291 291 292 292 293 293 295 296 297 297 297 297 296
291 292 291 291 290 289 289 289 288 288 288 289 290 290 289 290 290 290 290 288 289 290 291 291 291 291 291 292 293 294 294 295 295 295 295 296 296 296
Height
5882 5883 5884 5885 5886 5886 5887 5888 5889 5890 5891 5892 5892 5892 5892 5892 5892 5892 5891 5891 5891 5890 5890 5889 5889 5888 5888 5887 5887 5886 5885 5884 5883 5882 5881 5880 5879 5877
5877 5879 5880 5881 5882 5882 5883 5884 5884 5886 5887 5887 5888 5888 5888 5888 5888 5888 5888 5887 5887 5886 5886 5886 5885 5885 5884 5883 5882 5882 5881 5880 5879 5878 5876 5875 5874 5872
5872 5873 5875 5876 5877 5877 5878 5879 5880 5881 5882 5883 5883 5883 5883 5883 5884 5883 5883 5883 5882 5882 5881 5881 5881 5880 5879 5878 5878 5877 5876 5875 5873 5872 5871 5869 5867 5866
5867 5868 5869 5870 5871 5872 5873 5874 5875 5876 5877 5877 5877 5878 5878 5878 5878 5878 5878 5878 5877 5877 5876 5876 5875 5875 5874 5873 5872 5871 5870 5869 5867 5866 5864 5863 5861 5859
5861 5862 5864 5865 5866 5867 5868 5869 5869 5870 5871 5872 5872 5872 5872 5872 5872 5872 5872 5872 5871 5871 5870 5870 5870 5869 5868 5867 5866 5865 5863 5862 5860 5859 5857 5855 5853 5851
5856 5857 5859 5860 5861 5861 5862 5863 5864 5864 5865 5866 5866 5866 5866 5866 5866 5866 5866 5865 5865 5864 5864 5863 5863 5862 5861 5860 5859 5858 5856 5854 5852 5851 5849 5847 5844 5842
5852 5852 5853 5854 5855 5856 5857 5857 5858 5858 5859 5859 5859 5859 5859 5859 5859 5859 5859 5858 5858 5857 5857 5856 5855 5854 5853 5852 5851 5849 5848 5846 5844 5842 5840 5837 5835 5832
5847 5847 5848 5848 5849 5850 5851 5851 5851 5852 5852 5852 5852 5852 5852 5852 5852 5851 5851 5851 5850 5850 5848 5848 5847 5846 5845 5843 5842 5840 5839 5836 5834 5832 5830 5827 5825 5822
5842 5842 5842 5843 5843 5843 5844 5844 5845 5845 5845 5845 5845 5844 5844 5844 5843 5843 5842 5842 5841 5840 5839 5839 5837 5836 5835 5834 5833 5831 5828 5826 5824 5821 5819 5816 5813 5811
5836 5836 5836 5836 5836 5837 5837 5838 5838 5838 5838 5838 5838 5837 5836 5835 5834 5834 5834 5833 5832 5831 5829 5829 5827 5826 5824 5823 5821 5819 5817 5815 5812 5809 5807 5804 5801 5799
5830 5830 5830 5830 5830 5830 5830 5831 5831 5831 5830 5830 5829 5829 5828 5827 5826 5825 5824 5823 5822 5821 5819 5818 5817 5815 5813 5811 5809 5807 5805 5803 5800 5797 5794 5791 5788 5786
5824 5824 5824 5824 5823 5823 5823 5823 5823 5823 5822 5822 5821 5820 5819 5818 5816 5815 5814 5812 5811 5811 5809 5807 5805 5803 5802 5799 5796 5794 5792 5790 5787 5784 5781 5778 5775 5772
5818 5817 5817 5817 5816 5816 5816 5815 5815 5814 5813 5813 5812 5811 5809 5808 5807 5805 5804 5802 5800 5799 5797 5795 5793 5791 5788 5787 5784 5781 5778 5776 5773 5770 5767 5764 5761 5757
5811 5810 5810 5809 5809 5808 5808 5808 5807 5806 5805 5804 5802 5801 5800 5798 5797 5795 5793 5790 5789 5787 5784 5782 5780 5778 5775 5773 5770 5768 5765 5762 5759 5756 5753 5750 5746 5743
5803 5803 5802 5802 5802 5801 5800 5799 5798 5796 5795 5794 5793 5791 5790 5788 5786 5784 5782 5780 5777 5774 5772 5769 5767 5764 5761 5759 5756 5753 5750 5748 5744 5741 5738 5735 5731 5727
5795 5795 5794 5794 5793 5792 5790 5789 5788 5787 5785 5784 5782 5781 5779 5777 5774 5772 5770 5767 5765 5763 5760 5757 5754 5751 5748 5745 5742 5739 5736 5733 5730 5726 5723 5720 5716 5712
5787 5786 5786 5785 5784 5783 5781 5780 5778 5777 5775 5773 5771 5769 5767 5765 5763 5760 5758 5755 5752 5750 5747 5744 5741 5738 5735 5732 5729 5726 5722 5719 5715 5711 5708 5705 5701 5697
5778 5778 5777 5775 5774 5773 5772 5770 5768 5766 5764 5762 5760 5757 5755 5753 5750 5748 5745 5742 5739 5736 5733 5730 5727 5725 5722 5719 5716 5712 5709 5705 5701 5697 5693 5690 5686 5681
5769 5768 5767 5766 5765 5763 5762 5760 5757 5755 5753 5750 5748 5745 5743 5740 5738 5735 5732 5729 5726 5723 5720 5717 5714 5711 5708 5706 5703 5698 5695 5691 5687 5683 5679 5675 5671 5667
5760 5759 5758 5756 5755 5753 5751 5749 5746 5744 5741 5738 5736 5733 5731 5728 5725 5722 5719 5716 5713 5710 5707 5704 5701 5697 5694 5691 5688 5685 5680 5677 5673 5669 5665 5661 5657 5652
5751 5750 5748 5746 5744 5742 5740 5737 5735 5732 5730 5727 5724 5721 5718 5715 5712 5709 5706 5703 5700 5697 5694 5691 5687 5684 5680 5677 5674 5671 5667 5663 5659 5655 5651 5647 5643 5639
5742 5740 5737 5735 5733 5731 5728 5726 5723 5721 5718 5715 5712 5709 5706 5702 5699 5696 5693 5690 5687 5684 5680 5677 5674 5671 5667 5664 5660 5657 5653 5649 5645 5641 5637 5633 5629 5626
5732 5730 5727 5725 5722 5719 5717 5714 5711 5708 5705 5702 5699 5696 5693 5689 5686 5683 5680 5677 5674 5670 5667 5664 5661 5657 5654 5650 5647 5643 5640 5636 5633 5629 5625 5620 5617 5613